﻿測定場所 (Monitoring sites),日付 (Measurement date),時間 (Measurement time),線量率 最大値 (max) μGy/h,線量率 最小値 (min) μGy/h,線量率 平均値 (average) μGy/h,
江戸川 (Edogawa),2013-10-20,23:01～24:00,0.0829,0.0739,0.0787,
江戸川 (Edogawa),2013-10-20,22:01～23:00,0.0852,0.0733,0.0788,
江戸川 (Edogawa),2013-10-20,21:01～22:00,0.0835,0.0724,0.0776,
江戸川 (Edogawa),2013-10-20,20:01～21:00,0.0840,0.0730,0.0775,
江戸川 (Edogawa),2013-10-20,19:01～20:00,0.0854,0.0693,0.0743,
江戸川 (Edogawa),2013-10-20,18:01～19:00,0.0856,0.0690,0.0769,
江戸川 (Edogawa),2013-10-20,17:01～18:00,0.0834,0.0721,0.0762,
江戸川 (Edogawa),2013-10-20,16:01～17:00,0.0859,0.0724,0.0783,
江戸川 (Edogawa),2013-10-20,15:01～16:00,0.0857,0.0731,0.0799,
江戸川 (Edogawa),2013-10-20,14:01～15:00,0.0859,0.0744,0.0796,
江戸川 (Edogawa),2013-10-20,13:01～14:00,0.0842,0.0708,0.0784,
江戸川 (Edogawa),2013-10-20,12:01～13:00,0.0849,0.0699,0.0750,
江戸川 (Edogawa),2013-10-20,11:01～12:00,0.0853,0.0741,0.0795,
江戸川 (Edogawa),2013-10-20,10:01～11:00,0.0874,0.0751,0.0816,
江戸川 (Edogawa),2013-10-20,09:01～10:00,0.0888,0.0773,0.0831,
江戸川 (Edogawa),2013-10-20,08:01～09:00,0.0898,0.0780,0.0837,
江戸川 (Edogawa),2013-10-20,07:01～08:00,0.0861,0.0773,0.0807,
江戸川 (Edogawa),2013-10-20,06:01～07:00,0.0852,0.0752,0.0804,
江戸川 (Edogawa),2013-10-20,05:01～06:00,0.0866,0.0765,0.0813,
江戸川 (Edogawa),2013-10-20,04:01～05:00,0.0861,0.0754,0.0813,
江戸川 (Edogawa),2013-10-20,03:01～04:00,0.0889,0.0748,0.0811,
江戸川 (Edogawa),2013-10-20,02:01～03:00,0.0872,0.0747,0.0810,
江戸川 (Edogawa),2013-10-20,01:01～02:00,0.0874,0.0770,0.0821,
江戸川 (Edogawa),2013-10-20,00:01～01:00,0.0893,0.0781,0.0838,
江戸川 (Edogawa),2013-10-19,23:01～24:00,0.0905,0.0790,0.0843,
江戸川 (Edogawa),2013-10-19,22:01～23:00,0.0910,0.0771,0.0828,
江戸川 (Edogawa),2013-10-19,21:01～22:00,0.0888,0.0790,0.0834,
江戸川 (Edogawa),2013-10-19,20:01～21:00,0.0884,0.0774,0.0829,
江戸川 (Edogawa),2013-10-19,19:01～20:00,0.0900,0.0763,0.0828,
江戸川 (Edogawa),2013-10-19,18:01～19:00,0.0896,0.0783,0.0832,
江戸川 (Edogawa),2013-10-19,17:01～18:00,0.0913,0.0787,0.0841,
江戸川 (Edogawa),2013-10-19,16:01～17:00,0.0881,0.0774,0.0839,
江戸川 (Edogawa),2013-10-19,15:01～16:00,0.0885,0.0769,0.0831,
江戸川 (Edogawa),2013-10-19,14:01～15:00,0.0896,0.0784,0.0833,
江戸川 (Edogawa),2013-10-19,13:01～14:00,0.0871,0.0766,0.0832,
江戸川 (Edogawa),2013-10-19,12:01～13:00,0.0879,0.0776,0.0825,
江戸川 (Edogawa),2013-10-19,11:01～12:00,0.0876,0.0775,0.0823,
江戸川 (Edogawa),2013-10-19,10:01～11:00,0.0880,0.0784,0.0828,
江戸川 (Edogawa),2013-10-19,09:01～10:00,0.0876,0.0777,0.0828,
江戸川 (Edogawa),2013-10-19,08:01～09:00,0.0880,0.0757,0.0818,
江戸川 (Edogawa),2013-10-19,07:01～08:00,0.0870,0.0754,0.0811,
江戸川 (Edogawa),2013-10-19,06:01～07:00,0.0864,0.0757,0.0811,
江戸川 (Edogawa),2013-10-19,05:01～06:00,0.0898,0.0739,0.0812,
江戸川 (Edogawa),2013-10-19,04:01～05:00,0.0869,0.0761,0.0816,
江戸川 (Edogawa),2013-10-19,03:01～04:00,0.0892,0.0775,0.0823,
江戸川 (Edogawa),2013-10-19,02:01～03:00,0.0895,0.0781,0.0833,
江戸川 (Edogawa),2013-10-19,01:01～02:00,0.0897,0.0775,0.0830,
江戸川 (Edogawa),2013-10-19,00:01～01:00,0.0871,0.0745,0.0821,
江戸川 (Edogawa),2013-10-18,23:01～24:00,0.0865,0.0773,0.0820,
江戸川 (Edogawa),2013-10-18,22:01～23:00,0.0872,0.0760,0.0824,
江戸川 (Edogawa),2013-10-18,21:01～22:00,0.0882,0.0780,0.0825,
江戸川 (Edogawa),2013-10-18,20:01～21:00,0.0866,0.0762,0.0823,
江戸川 (Edogawa),2013-10-18,19:01～20:00,0.0882,0.0760,0.0828,
江戸川 (Edogawa),2013-10-18,18:01～19:00,0.0880,0.0757,0.0820,
江戸川 (Edogawa),2013-10-18,17:01～18:00,0.0877,0.0765,0.0818,
江戸川 (Edogawa),2013-10-18,16:01～17:00,0.0882,0.0726,0.0826,
江戸川 (Edogawa),2013-10-18,15:01～16:00,0.0906,0.0778,0.0821,
江戸川 (Edogawa),2013-10-18,14:01～15:00,0.0881,0.0759,0.0822,
江戸川 (Edogawa),2013-10-18,13:01～14:00,0.0892,0.0774,0.0826,
江戸川 (Edogawa),2013-10-18,12:01～13:00,0.0903,0.0762,0.0825,
江戸川 (Edogawa),2013-10-18,11:01～12:00,0.0882,0.0766,0.0822,
江戸川 (Edogawa),2013-10-18,10:01～11:00,0.0884,0.0758,0.0827,
江戸川 (Edogawa),2013-10-18,09:01～10:00,0.0875,0.0764,0.0828,
江戸川 (Edogawa),2013-10-18,08:01～09:00,0.0885,0.0757,0.0819,
江戸川 (Edogawa),2013-10-18,07:01～08:00,0.0874,0.0769,0.0814,
江戸川 (Edogawa),2013-10-18,06:01～07:00,0.0882,0.0760,0.0817,
江戸川 (Edogawa),2013-10-18,05:01～06:00,0.0878,0.0758,0.0815,
江戸川 (Edogawa),2013-10-18,04:01～05:00,0.0872,0.0772,0.0817,
江戸川 (Edogawa),2013-10-18,03:01～04:00,0.0866,0.0767,0.0813,
江戸川 (Edogawa),2013-10-18,02:01～03:00,0.0874,0.0767,0.0819,
江戸川 (Edogawa),2013-10-18,01:01～02:00,0.0886,0.0766,0.0821,
江戸川 (Edogawa),2013-10-18,00:01～01:00,0.0871,0.0745,0.0818,
江戸川 (Edogawa),2013-10-17,23:01～24:00,0.0905,0.0770,0.0821,
江戸川 (Edogawa),2013-10-17,22:01～23:00,0.0881,0.0765,0.0821,
江戸川 (Edogawa),2013-10-17,21:01～22:00,0.0887,0.0772,0.0823,
江戸川 (Edogawa),2013-10-17,20:01～21:00,0.0892,0.0765,0.0823,
江戸川 (Edogawa),2013-10-17,19:01～20:00,0.0881,0.0767,0.0819,
江戸川 (Edogawa),2013-10-17,18:01～19:00,0.0901,0.0763,0.0821,
江戸川 (Edogawa),2013-10-17,17:01～18:00,0.0874,0.0769,0.0821,
江戸川 (Edogawa),2013-10-17,16:01～17:00,0.0889,0.0755,0.0825,
江戸川 (Edogawa),2013-10-17,15:01～16:00,0.0870,0.0768,0.0822,
江戸川 (Edogawa),2013-10-17,14:01～15:00,0.0879,0.0776,0.0823,
江戸川 (Edogawa),2013-10-17,13:01～14:00,0.0913,0.0766,0.0827,
江戸川 (Edogawa),2013-10-17,12:01～13:00,0.0875,0.0768,0.0822,
江戸川 (Edogawa),2013-10-17,11:01～12:00,0.0869,0.0761,0.0823,
江戸川 (Edogawa),2013-10-17,10:01～11:00,0.0905,0.0780,0.0823,
江戸川 (Edogawa),2013-10-17,09:01～10:00,0.0866,0.0776,0.0823,
江戸川 (Edogawa),2013-10-17,08:01～09:00,0.0870,0.0768,0.0817,
江戸川 (Edogawa),2013-10-17,07:01～08:00,0.0868,0.0753,0.0811,
江戸川 (Edogawa),2013-10-17,06:01～07:00,0.0875,0.0758,0.0810,
江戸川 (Edogawa),2013-10-17,05:01～06:00,0.0874,0.0758,0.0816,
江戸川 (Edogawa),2013-10-17,04:01～05:00,0.0870,0.0745,0.0808,
江戸川 (Edogawa),2013-10-17,03:01～04:00,0.0872,0.0751,0.0809,
江戸川 (Edogawa),2013-10-17,02:01～03:00,0.0857,0.0749,0.0810,
江戸川 (Edogawa),2013-10-17,01:01～02:00,0.0868,0.0764,0.0812,
江戸川 (Edogawa),2013-10-17,00:01～01:00,0.0897,0.0770,0.0821,
江戸川 (Edogawa),2013-10-16,23:01～24:00,0.0880,0.0781,0.0819,
江戸川 (Edogawa),2013-10-16,22:01～23:00,0.0871,0.0760,0.0817,
江戸川 (Edogawa),2013-10-16,21:01～22:00,0.0866,0.0774,0.0824,
江戸川 (Edogawa),2013-10-16,20:01～21:00,0.0885,0.0760,0.0814,
江戸川 (Edogawa),2013-10-16,19:01～20:00,0.0872,0.0757,0.0814,
江戸川 (Edogawa),2013-10-16,18:01～19:00,0.0877,0.0739,0.0812,
江戸川 (Edogawa),2013-10-16,17:01～18:00,0.0861,0.0749,0.0810,
江戸川 (Edogawa),2013-10-16,16:01～17:00,0.0866,0.0763,0.0816,
江戸川 (Edogawa),2013-10-16,15:01～16:00,0.0889,0.0764,0.0815,
江戸川 (Edogawa),2013-10-16,14:01～15:00,0.0866,0.0757,0.0811,
江戸川 (Edogawa),2013-10-16,13:01～14:00,0.0887,0.0742,0.0812,
江戸川 (Edogawa),2013-10-16,12:01～13:00,0.0860,0.0753,0.0808,
江戸川 (Edogawa),2013-10-16,11:01～12:00,0.0867,0.0757,0.0810,
江戸川 (Edogawa),2013-10-16,10:01～11:00,0.0861,0.0762,0.0809,
江戸川 (Edogawa),2013-10-16,09:01～10:00,0.0897,0.0735,0.0816,
江戸川 (Edogawa),2013-10-16,08:01～09:00,0.0930,0.0799,0.0852,
江戸川 (Edogawa),2013-10-16,07:01～08:00,0.0896,0.0736,0.0804,
江戸川 (Edogawa),2013-10-16,06:01～07:00,0.0783,0.0653,0.0706,
江戸川 (Edogawa),2013-10-16,05:01～06:00,0.0686,0.0605,0.0645,
江戸川 (Edogawa),2013-10-16,04:01～05:00,0.0688,0.0613,0.0656,
江戸川 (Edogawa),2013-10-16,03:01～04:00,0.0715,0.0618,0.0671,
江戸川 (Edogawa),2013-10-16,02:01～03:00,0.0799,0.0646,0.0708,
江戸川 (Edogawa),2013-10-16,01:01～02:00,0.0849,0.0727,0.0778,
江戸川 (Edogawa),2013-10-16,00:01～01:00,0.0842,0.0750,0.0798,
江戸川 (Edogawa),2013-10-15,23:01～24:00,0.0893,0.0778,0.0843,
江戸川 (Edogawa),2013-10-15,22:01～23:00,0.0899,0.0788,0.0838,
江戸川 (Edogawa),2013-10-15,21:01～22:00,0.0857,0.0732,0.0808,
江戸川 (Edogawa),2013-10-15,20:01～21:00,0.0910,0.0785,0.0845,
江戸川 (Edogawa),2013-10-15,19:01～20:00,0.0919,0.0793,0.0850,
江戸川 (Edogawa),2013-10-15,18:01～19:00,0.0920,0.0775,0.0846,
江戸川 (Edogawa),2013-10-15,17:01～18:00,0.0910,0.0785,0.0848,
江戸川 (Edogawa),2013-10-15,16:01～17:00,0.0941,0.0814,0.0869,
江戸川 (Edogawa),2013-10-15,15:01～16:00,0.0920,0.0813,0.0867,
江戸川 (Edogawa),2013-10-15,14:01～15:00,0.0943,0.0808,0.0864,
江戸川 (Edogawa),2013-10-15,13:01～14:00,0.0928,0.0815,0.0868,
江戸川 (Edogawa),2013-10-15,12:01～13:00,0.0932,0.0814,0.0865,
江戸川 (Edogawa),2013-10-15,11:01～12:00,0.0920,0.0823,0.0863,
江戸川 (Edogawa),2013-10-15,10:01～11:00,0.0909,0.0807,0.0854,
江戸川 (Edogawa),2013-10-15,09:01～10:00,0.0919,0.0778,0.0854,
江戸川 (Edogawa),2013-10-15,08:01～09:00,0.0931,0.0813,0.0862,
江戸川 (Edogawa),2013-10-15,07:01～08:00,0.0894,0.0791,0.0855,
江戸川 (Edogawa),2013-10-15,06:01～07:00,0.0919,0.0773,0.0854,
江戸川 (Edogawa),2013-10-15,05:01～06:00,0.0905,0.0812,0.0853,
江戸川 (Edogawa),2013-10-15,04:01～05:00,0.0959,0.0790,0.0856,
江戸川 (Edogawa),2013-10-15,03:01～04:00,0.0921,0.0788,0.0852,
江戸川 (Edogawa),2013-10-15,02:01～03:00,0.0914,0.0780,0.0852,
江戸川 (Edogawa),2013-10-15,01:01～02:00,0.0904,0.0790,0.0847,
江戸川 (Edogawa),2013-10-15,00:01～01:00,0.0914,0.0808,0.0850,
江戸川 (Edogawa),2013-10-14,23:01～24:00,0.0925,0.0795,0.0849,
江戸川 (Edogawa),2013-10-14,22:01～23:00,0.0884,0.0797,0.0846,
江戸川 (Edogawa),2013-10-14,21:01～22:00,0.0911,0.0782,0.0855,
江戸川 (Edogawa),2013-10-14,20:01～21:00,0.0920,0.0799,0.0849,
江戸川 (Edogawa),2013-10-14,19:01～20:00,0.0899,0.0784,0.0847,
江戸川 (Edogawa),2013-10-14,18:01～19:00,0.0897,0.0776,0.0845,
江戸川 (Edogawa),2013-10-14,17:01～18:00,0.0901,0.0786,0.0844,
江戸川 (Edogawa),2013-10-14,16:01～17:00,0.0890,0.0796,0.0842,
江戸川 (Edogawa),2013-10-14,15:01～16:00,0.0891,0.0799,0.0847,
江戸川 (Edogawa),2013-10-14,14:01～15:00,0.0904,0.0775,0.0845,
江戸川 (Edogawa),2013-10-14,13:01～14:00,0.0924,0.0812,0.0855,
江戸川 (Edogawa),2013-10-14,12:01～13:00,0.0900,0.0810,0.0849,
江戸川 (Edogawa),2013-10-14,11:01～12:00,0.0909,0.0802,0.0851,
江戸川 (Edogawa),2013-10-14,10:01～11:00,0.0913,0.0800,0.0855,
江戸川 (Edogawa),2013-10-14,09:01～10:00,0.0907,0.0803,0.0852,
江戸川 (Edogawa),2013-10-14,08:01～09:00,0.0907,0.0793,0.0847,
江戸川 (Edogawa),2013-10-14,07:01～08:00,0.0925,0.0790,0.0846,
江戸川 (Edogawa),2013-10-14,06:01～07:00,0.0897,0.0800,0.0846,
江戸川 (Edogawa),2013-10-14,05:01～06:00,0.0909,0.0796,0.0850,
江戸川 (Edogawa),2013-10-14,04:01～05:00,0.0942,0.0802,0.0848,
江戸川 (Edogawa),2013-10-14,03:01～04:00,0.0891,0.0798,0.0847,
江戸川 (Edogawa),2013-10-14,02:01～03:00,0.0916,0.0793,0.0848,
江戸川 (Edogawa),2013-10-14,01:01～02:00,0.0905,0.0794,0.0851,
江戸川 (Edogawa),2013-10-14,00:01～01:00,0.0887,0.0797,0.0847,
